Weather History for Marathon, FL

Change the Weather History Date:

Wednesday, October 2, 2013

  Actual Average Record
Temperature  
Mean Temperature 82 °F 83 °F  
Max Temperature 88 °F 88 °F 90 °F (2002)
Min Temperature 76 °F 78 °F 72 °F (2010)
Degree Days  
Heating Degree Days 0 0  
Month to date heating degree days 0 0  
Since 1 July heating degree days 0 0  
Cooling Degree Days 17 18  
Month to date cooling degree days 35 36  
Year to date cooling degree days 4341 3990  
Growing Degree Days 32 (Base 50)    
Moisture  
Dew Point 76 °F    
Average Humidity 74    
Maximum Humidity 80    
Minimum Humidity 68    
Precipitation  
Precipitation 0.54 in 0.18 in 2.61 in (2000)
Month to date precipitation 0.75 0.37  
Year to date precipitation 43.14 36.92  
Snow  
Snow 0.00 in - - ()
Month to date snowfall 0.0  
Since 1 July snowfall 0.0  
Since 1 September snowfall 0.0  
Snow Depth 0.00 in    
Sea Level Pressure  
Sea Level Pressure 29.98 in    
Wind  
Wind Speed 6 mph (East)    
Max Wind Speed 10 mph    
Max Gust Speed 17 mph    
Visibility 9 miles    
Events Fog , Rain , Thunderstorm    
T = Trace of Precipitation, MM = Missing Value Source: NWS Daily Summary

Daily Weather History Graph

Daily Weather History Graph

Search for Another Location

Airport:

Trip Planner

Search our weather history database for the weather conditions in past years. The results will help you decide how hot, cold, wet, or windy it might be!

Date:

Astronomy

Oct. 02, 2013 Rise Set
Actual Time 7:16 AM EDT 7:09 PM EDT
Civil Twilight 6:53 AM EDT 7:32 PM EDT
Nautical Twilight 6:27 AM EDT 7:58 PM EDT
Astronomical Twilight 6:01 AM EDT 8:25 PM EDT
Moon 5:00 AM EDT (10/2) 5:35 PM EDT (10/2)
Length of Visible Light 12h 38m
Length of Day
11h 53m
Waning Crescent, 6% of the Moon is Illuminated
Oct 2
Waning Crescent
Oct 4
New
Oct 11
First Quarter
Oct 18
Full
Oct 26
Last Quarter

Hourly Weather History & Observations

Time (EDT) Temp. Heat Index Dew Point Humidity Pressure Visibility Wind Dir Wind Speed Gust Speed Precip Events Conditions
12:53 AM 77.0 °F - - N/A% 30.00 in 9.0 mi SE 3.5 mph - 0.03 in Rain , Thunderstorm Light Rain
1:06 AM 77.0 °F - - N/A% 30.00 in 10.0 mi East 3.5 mph - 0.01 in Rain Light Rain
1:53 AM 79.0 °F - - N/A% 29.99 in 10.0 mi ENE 4.6 mph - 0.02 in Rain Light Rain
2:53 AM 78.1 °F - - N/A% 29.97 in 10.0 mi ENE 4.6 mph - 0.01 in Rain Light Rain
3:53 AM 78.1 °F - - N/A% 29.94 in 10.0 mi Calm Calm - 0.00 in   Clear
4:53 AM 78.1 °F - - N/A% 29.94 in 10.0 mi East 3.5 mph - N/A   Clear
5:53 AM 79.0 °F - - N/A% 29.95 in 10.0 mi ENE 6.9 mph - N/A   Clear
6:53 AM 79.0 °F - - N/A% 29.96 in 10.0 mi ENE 3.5 mph - N/A   Clear
7:53 AM 77.0 °F - 75.0 °F 94% 29.98 in 0.5 mi ESE 6.9 mph 16.1 mph 0.21 in Fog , Rain Heavy Rain
8:00 AM 75.2 °F - 73.4 °F 94% 29.98 in 0.2 mi Calm Calm - 0.23 in Fog , Rain Heavy Rain
8:12 AM 77.0 °F - 77.0 °F 100% 29.98 in 2.0 mi NNE 3.5 mph - 0.30 in Rain Rain
8:19 AM 78.8 °F - 78.8 °F 100% 29.98 in 7.0 mi East 4.6 mph - 0.30 in Rain Light Rain
8:36 AM 80.6 °F 88.1 °F 78.8 °F 94% 29.99 in 10.0 mi Calm Calm - 0.31 in Rain , Thunderstorm Light Rain
8:53 AM 82.0 °F 90.2 °F 77.0 °F 85% 29.99 in 10.0 mi Variable 3.5 mph - 0.31 in   Partly Cloudy
9:53 AM 84.9 °F 95.3 °F 77.0 °F 77% 30.00 in 10.0 mi ESE 5.8 mph - N/A   Partly Cloudy
10:53 AM 86.0 °F 95.1 °F 75.0 °F 70% 30.01 in 10.0 mi East 6.9 mph - N/A   Partly Cloudy
11:53 AM 88.0 °F 98.5 °F 75.9 °F 67% 30.00 in 10.0 mi East 8.1 mph - N/A   Partly Cloudy
12:53 PM 87.1 °F 96.3 °F 75.0 °F 67% 29.99 in 10.0 mi East 9.2 mph - N/A   Clear
1:53 PM 86.0 °F 95.1 °F 75.0 °F 70% 29.99 in 10.0 mi ESE 8.1 mph - N/A   Scattered Clouds
2:53 PM 88.0 °F 97.5 °F 75.0 °F 65% 29.97 in 10.0 mi ESE 6.9 mph - N/A   Partly Cloudy
3:53 PM 87.1 °F 96.3 °F 75.0 °F 67% 29.95 in 10.0 mi ESE 8.1 mph - N/A   Partly Cloudy
4:53 PM 86.0 °F 96.0 °F 75.9 °F 72% 29.96 in 10.0 mi ESE 6.9 mph - N/A   Scattered Clouds
5:53 PM 84.9 °F 93.3 °F 75.0 °F 72% 29.96 in 10.0 mi East 6.9 mph - N/A   Clear
6:53 PM 84.0 °F 92.6 °F 75.9 °F 76% 29.97 in 10.0 mi East 5.8 mph - N/A   Partly Cloudy
7:53 PM 82.9 °F 90.2 °F 75.0 °F 77% 29.98 in 10.0 mi ESE 3.5 mph - N/A   Partly Cloudy
8:53 PM 82.9 °F 90.2 °F 75.0 °F 77% 29.99 in 10.0 mi ESE 5.8 mph - N/A   Scattered Clouds
9:53 PM 84.0 °F 92.6 °F 75.9 °F 76% 30.01 in 10.0 mi ESE 5.8 mph - N/A   Partly Cloudy
10:53 PM 82.9 °F 90.8 °F 75.9 °F 79% 30.01 in 10.0 mi Variable 5.8 mph - N/A   Partly Cloudy
11:53 PM 82.9 °F 90.8 °F 75.9 °F 79% 30.01 in 10.0 mi East 8.1 mph - N/A   Scattered Clouds